GW4629 Weather Reports


Display with metric or nautical units.
time (UTC)temp
F
wind
direction
speed
MPH
gust
MPH
rain 1hr
in
rain 24hr
in
rain mn
in
humidity
%
barometer
mb
20260505223722 31 143 0.0 0.0 0.00 0.02 0.02 99 1014.4
20260505223218 29 142 0.0 0.0 0.00 0.02 0.02 99 1014.3
20260505222714 29 142 0.0 0.0 0.00 0.02 0.02 99 1014.3
20260505222210 28 85 0.0 0.0 0.00 0.02 0.02 99 1014.4
20260505221707 28 85 0.0 0.0 0.00 0.02 0.02 99 1014.4
20260505221204 29 129 0.0 0.0 0.00 0.02 0.02 99 1014.1
20260505220701 29 129 0.0 0.0 0.00 0.02 0.02 99 1014.1
20260505220158 28 148 0.0 0.0 0.00 0.02 0.02 99 1014.4
20260505215655 28 148 0.0 0.0 0.00 0.02 0.02 99 1014.4
20260505215153 27 181 1.0 1.0 0.00 0.02 0.02 99 1014.4
20260505214651 27 181 1.0 1.0 0.00 0.02 0.02 99 1014.4
20260505214149 26 225 2.0 2.0 0.00 0.02 0.02 99 1014.2
20260505213646 26 225 2.0 2.0 0.00 0.02 0.02 99 1014.2
20260505213143 26 241 1.0 1.0 0.00 0.02 0.02 99 1014.4
20260505212638 26 241 1.0 1.0 0.00 0.02 0.02 99 1014.4
20260505212136 26 242 1.0 2.0 0.00 0.02 0.02 99 1014.2
20260505211633 26 242 1.0 2.0 0.00 0.02 0.02 99 1014.2
20260505211130 26 225 3.0 3.0 0.00 0.02 0.02 99 1014.4
20260505210627 26 225 3.0 3.0 0.00 0.02 0.02 99 1014.4
20260505210124 25 191 4.0 6.0 0.00 0.02 0.02 99 1014.4
20260505205621 25 191 4.0 6.0 0.00 0.02 0.02 99 1014.4
20260505205119 25 215 5.0 7.0 0.00 0.02 0.02 99 1014.2
20260505204616 25 215 5.0 7.0 0.00 0.02 0.02 99 1014.2
20260505204113 25 287 3.0 7.0 0.00 0.02 0.02 99 1013.9
20260505203604 25 287 3.0 7.0 0.00 0.02 0.02 99 1013.9
20260505203101 26 194 3.0 4.0 0.00 0.02 0.02 99 1014.4
20260505202557 26 194 3.0 4.0 0.00 0.02 0.02 99 1014.4
20260505202053 26 243 4.0 4.0 0.00 0.02 0.02 99 1014.7
20260505201550 26 243 4.0 4.0 0.00 0.02 0.02 99 1014.7
20260505201048 26 255 4.0 6.0 0.00 0.02 0.02 99 1014.6
20260505200545 26 255 4.0 6.0 0.00 0.02 0.02 99 1014.6
20260505200041 27 249 5.0 6.0 0.00 0.02 0.02 99 1014.7
20260505195538 27 249 5.0 6.0 0.00 0.02 0.02 99 1014.7
20260505195035 26 273 5.0 6.0 0.00 0.02 0.02 99 1014.6
20260505194532 26 273 5.0 6.0 0.00 0.02 0.02 99 1014.6
20260505194027 26 255 5.0 7.0 0.00 0.02 0.02 99 1014.8
20260505193525 26 255 5.0 7.0 0.00 0.02 0.02 99 1014.8
20260505193022 26 255 4.0 4.0 0.00 0.02 0.02 99 1014.8
20260505192520 26 255 4.0 4.0 0.00 0.02 0.02 99 1014.8
20260505192018 25 321 5.0 6.0 0.00 0.02 0.02 99 1014.7
20260505191516 25 321 5.0 6.0 0.00 0.02 0.02 99 1014.7
20260505191014 26 222 4.0 6.0 0.00 0.02 0.02 99 1014.8
20260505190508 26 222 4.0 6.0 0.00 0.02 0.02 99 1014.8
20260505190004 26 300 5.0 8.0 0.00 0.02 0.02 99 1014.6
20260505185501 26 300 5.0 8.0 0.00 0.02 0.02 99 1014.6
20260505184957 26 221 12.0 15.0 0.00 0.02 0.02 99 1014.3
20260505184454 26 221 12.0 15.0 0.00 0.02 0.02 99 1014.3
20260505183950 30 142 0.0 0.0 0.00 0.02 0.02 99 1014.8
20260505183448 30 142 0.0 0.0 0.00 0.02 0.02 99 1014.8
20260505182944 31 142 0.0 0.0 0.00 0.02 0.02 99 1014.8
20260505182442 31 142 0.0 0.0 0.00 0.02 0.02 99 1014.8
20260505181937 31 141 0.0 0.0 0.00 0.02 0.02 99 1014.9
20260505181435 31 141 0.0 0.0 0.00 0.02 0.02 99 1014.9
20260505180932 30 140 0.0 0.0 0.00 0.02 0.02 99 1015.1
20260505180428 30 140 0.0 0.0 0.00 0.02 0.02 99 1015.1
20260505175925 30 140 0.0 0.0 0.00 0.02 0.02 99 1015.1
20260505175421 30 140 0.0 0.0 0.00 0.02 0.02 99 1015.3
20260505174918 30 140 0.0 0.0 0.00 0.02 0.02 99 1015.3
20260505174415 30 139 0.0 0.0 0.00 0.02 0.02 99 1015.2
20260505173912 30 139 0.0 0.0 0.00 0.02 0.02 99 1015.2
20260505173408 31 139 0.0 0.0 0.00 0.02 0.02 99 1015.4
20260505172905 31 139 0.0 0.0 0.00 0.02 0.02 99 1015.4
20260505172403 30 139 0.0 0.0 0.00 0.02 0.02 99 1015.8
20260505171902 30 139 0.0 0.0 0.00 0.02 0.02 99 1015.8
20260505171359 30 139 0.0 0.0 0.00 0.02 0.02 99 1015.6
20260505170856 30 139 0.0 0.0 0.00 0.02 0.02 99 1015.6
20260505170353 30 139 0.0 0.0 0.00 0.02 0.02 99 1015.6
20260505165848 30 139 0.0 0.0 0.00 0.02 0.02 99 1015.6
20260505165344 30 139 0.0 0.0 0.00 0.02 0.02 99 1015.6
20260505164840 30 139 0.0 0.0 0.00 0.02 0.02 99 1015.6
20260505164337 31 139 0.0 0.0 0.00 0.02 0.02 99 1015.6
20260505163835 31 139 0.0 0.0 0.00 0.02 0.02 99 1015.6
20260505163328 31 139 0.0 0.0 0.00 0.02 0.02 99 1015.4
20260505162826 31 139 0.0 0.0 0.00 0.02 0.02 99 1015.4
20260505162322 30 138 0.0 0.0 0.00 0.02 0.02 99 1015.8
20260505161819 30 138 0.0 0.0 0.00 0.02 0.02 99 1015.8
20260505161317 30 138 0.0 0.0 0.00 0.02 0.02 99 1015.8
20260505160814 30 138 0.0 0.0 0.00 0.02 0.02 99 1015.8
20260505160311 30 138 0.0 0.0 0.00 0.02 0.02 99 1015.7
20260505153244 31 345 2.0 2.0 0.00 0.02 0.02 99 1016.3
20260505152741 31 345 2.0 2.0 0.00 0.02 0.02 99 1016.3
20260505152237 31 1 3.0 3.0 0.00 0.02 0.02 99 1016.1
20260505151732 31 1 3.0 3.0 0.00 0.02 0.02 99 1016.1
20260505151230 30 347 2.0 3.0 0.00 0.02 0.02 99 1016.2
20260505150726 30 347 2.0 3.0 0.00 0.02 0.02 99 1016.2
20260505150224 30 351 4.0 4.0 0.00 0.02 0.02 99 1016.1
20260505140154 28 264 2.0 3.0 0.00 0.02 0.02 99 1016.2
20260505130117 29 332 4.0 4.0 0.00 0.02 0.02 99 1015.7
20260505124607 28 283 4.0 6.0 0.00 0.02 0.02 99 1015.6
20260505124103 29 287 5.0 6.0 0.00 0.02 0.02 99 1015.3
20260505123559 29 287 5.0 6.0 0.00 0.02 0.02 99 1015.3
20260505123056 29 325 5.0 6.0 0.00 0.02 0.02 99 1015.2
20260505122553 29 325 5.0 6.0 0.00 0.02 0.02 99 1015.2
20260505122050 29 278 4.0 6.0 0.00 0.02 0.02 99 1015.2
20260505121546 29 278 4.0 6.0 0.00 0.02 0.02 99 1015.2
20260505121043 29 282 4.0 4.0 0.00 0.02 0.02 99 1015.2
20260505120540 29 282 4.0 4.0 0.00 0.02 0.02 99 1015.2
20260505120035 29 271 4.0 4.0 0.00 0.02 0.02 99 1015.1
20260505115530 29 271 4.0 4.0 0.00 0.02 0.02 99 1015.1
20260505115028 29 267 4.0 4.0 0.00 0.02 0.02 99 1015.3
20260505114525 29 267 4.0 4.0 0.00 0.02 0.02 99 1015.3
20260505114021 29 319 3.0 3.0 0.00 0.02 0.02 99 1015.2
20260505113518 29 319 3.0 3.0 0.00 0.02 0.02 99 1015.2
20260505113014 29 274 2.0 2.0 0.00 0.02 0.02 99 1015.2
20260505112510 29 274 2.0 2.0 0.00 0.02 0.02 99 1015.2
20260505112008 29 229 2.0 3.0 0.00 0.02 0.02 99 1014.9
20260505111501 29 229 2.0 3.0 0.00 0.02 0.02 99 1014.9
20260505110958 30 267 5.0 6.0 0.00 0.02 0.02 99 1014.9
20260505110455 30 267 5.0 6.0 0.00 0.02 0.02 99 1014.9
20260505101921 30 254 6.0 7.0 0.00 0.02 0.02 99 1014.7
20260505101420 30 254 6.0 7.0 0.00 0.02 0.02 99 1014.7
20260505100916 30 263 2.0 3.0 0.00 0.02 0.02 99 1014.8
20260505100413 30 263 2.0 3.0 0.00 0.02 0.02 99 1014.8
20260505095909 30 270 3.0 3.0 0.00 0.02 0.02 99 1014.8
20260505095406 30 270 3.0 3.0 0.00 0.02 0.02 99 1014.8
20260505094902 30 233 3.0 3.0 0.00 0.02 0.02 99 1014.8
20260505094400 30 233 3.0 3.0 0.00 0.02 0.02 99 1014.8
20260505093855 31 218 5.0 7.0 0.00 0.02 0.02 99 1014.7
20260505093352 31 218 5.0 7.0 0.00 0.02 0.02 99 1014.7
20260505092850 31 274 2.0 3.0 0.00 0.02 0.02 99 1014.9
20260505092348 31 274 2.0 3.0 0.00 0.02 0.02 99 1014.9
20260505091844 31 164 2.0 3.0 0.00 0.02 0.02 99 1015.1
20260505091343 31 164 2.0 3.0 0.00 0.02 0.02 99 1015.1
20260505090840 31 245 3.0 4.0 0.00 0.02 0.02 99 1014.8
20260505090338 31 245 3.0 4.0 0.00 0.02 0.02 99 1014.8
20260505085835 31 263 2.0 2.0 0.00 0.02 0.02 99 1014.9
20260505085333 31 205 1.0 2.0 0.00 0.02 0.02 99 1014.9
20260505084831 31 205 1.0 2.0 0.00 0.02 0.02 99 1014.9
20260505084329 32 218 3.0 4.0 0.00 0.02 0.02 99 1014.8
20260505083826 32 218 3.0 4.0 0.00 0.02 0.02 99 1014.8
20260505083323 32 256 4.0 4.0 0.00 0.02 0.02 99 1014.8
20260505082820 32 256 4.0 4.0 0.00 0.02 0.02 99 1014.8
20260505082316 32 228 3.0 3.0 0.00 0.02 0.02 99 1015.2
20260505081813 32 228 3.0 3.0 0.00 0.02 0.02 99 1015.2
20260505081310 32 285 6.0 7.0 0.00 0.02 0.02 99 1015.1
20260505080806 32 285 6.0 7.0 0.00 0.02 0.02 99 1015.1
20260505080302 33 280 4.0 4.0 0.07 0.02 0.02 99 1015.2
20260505075758 33 280 4.0 4.0 0.07 0.02 0.02 99 1015.2
20260505075255 34 272 1.0 2.0 0.00 0.01 0.01 99 1015.3
20260505074752 34 272 1.0 2.0 0.00 0.01 0.01 99 1015.3
20260505074249 33 275 5.0 7.0 0.00 0.01 0.01 99 1015.3
20260505073747 33 275 5.0 7.0 0.00 0.01 0.01 99 1015.3
20260505073244 33 250 6.0 9.0 0.00 0.01 0.01 99 1015.4
20260505072741 33 250 6.0 9.0 0.00 0.01 0.01 99 1015.4
20260505072237 34 342 3.0 4.0 0.05 0.01 0.01 99 1015.6
20260505071733 34 342 3.0 4.0 0.05 0.01 0.01 99 1015.6
20260505071230 34 274 10.0 10.0 0.00 0.00 0.00 99 1015.3
20260505070728 34 274 10.0 10.0 0.00 0.00 0.00 99 1015.3
20260505070224 35 278 6.0 7.0 0.00 0.00 0.00 99 1015.3
20260505065720 35 278 6.0 7.0 0.00 0.00 0.00 99 1015.3
20260505065217 34 270 7.0 9.0 0.00 0.00 0.00 99 1015.4
20260505064713 34 270 7.0 9.0 0.00 0.00 0.00 99 1015.4
20260505064212 35 266 8.0 9.0 0.00 0.00 0.00 99 1015.2
20260505063709 35 266 8.0 9.0 0.00 0.00 0.00 99 1015.2
20260505063205 35 237 9.0 10.0 0.00 0.00 0.00 99 1015.4
20260505062701 35 237 9.0 10.0 0.00 0.00 0.00 99 1015.4
20260505062159 35 267 4.0 6.0 0.00 0.00 0.00 99 1015.7
20260505061655 35 267 4.0 6.0 0.00 0.00 0.00 99 1015.7
20260505061154 35 190 3.0 6.0 0.00 0.00 0.00 99 1014.8
20260505060651 35 190 3.0 6.0 0.00 0.00 0.00 99 1014.8
20260505060147 35 247 8.0 10.0 0.00 0.03 0.03 99 1014.6
20260505055643 35 247 8.0 10.0 0.00 0.03 0.03 99 1014.6
20260505055140 35 51 7.0 9.0 0.00 0.03 0.03 99 1014.3
20260505054637 35 51 7.0 9.0 0.00 0.03 0.03 99 1014.3
20260505054135 35 271 9.0 17.0 0.07 0.03 0.03 99 1014.2
20260505053632 35 271 9.0 17.0 0.07 0.03 0.03 99 1014.2
20260505053128 39 214 9.0 11.0 0.00 0.02 0.02 99 1014.2
20260505052626 39 214 9.0 11.0 0.00 0.02 0.02 99 1014.2
20260505052123 41 346 4.0 6.0 0.00 0.02 0.02 99 1014.9
20260505051620 41 346 4.0 6.0 0.00 0.02 0.02 99 1014.9
20260505051118 41 170 4.0 9.0 0.00 0.02 0.02 99 1014.6
20260505050615 41 170 4.0 9.0 0.00 0.02 0.02 99 1014.6
20260505050114 42 270 4.0 6.0 0.00 0.02 0.02 99 1014.8
20260505041543 44 306 4.0 6.0 0.00 0.02 0.02 99 1014.9
20260505041041 44 326 5.0 6.0 0.00 0.02 0.02 99 1014.9
20260505040538 44 326 5.0 6.0 0.00 0.02 0.02 99 1014.9
20260505040035 44 266 3.0 3.0 0.00 0.02 0.02 99 1014.9
20260505035531 44 266 3.0 3.0 0.00 0.02 0.02 99 1014.9
20260505035028 45 322 5.0 6.0 0.00 0.02 0.02 99 1014.7
20260505034524 45 322 5.0 6.0 0.00 0.02 0.02 99 1014.7
20260505034021 45 354 4.0 6.0 0.00 0.02 0.02 99 1014.7
20260505033518 45 354 4.0 6.0 0.00 0.02 0.02 99 1014.7
20260505033016 45 333 6.0 6.0 0.00 0.02 0.02 99 1014.7
20260505032514 45 333 6.0 6.0 0.00 0.02 0.02 99 1014.7
20260505032010 45 332 6.0 7.0 0.00 0.02 0.02 99 1014.7
20260505031508 45 332 6.0 7.0 0.00 0.02 0.02 99 1014.7
20260505031004 44 336 6.0 7.0 0.00 0.02 0.02 99 1014.2
20260505030500 44 336 6.0 7.0 0.00 0.02 0.02 99 1014.2
20260505025955 44 326 6.0 7.0 0.00 0.02 0.02 99 1013.9
20260505025453 44 326 6.0 7.0 0.00 0.02 0.02 99 1013.9
20260505024952 44 279 9.0 9.0 0.00 0.02 0.02 99 1014.3
20260505024448 44 279 9.0 9.0 0.00 0.02 0.02 99 1014.3
20260505023945 44 266 9.0 9.0 0.00 0.02 0.02 99 1014.1
20260505023442 44 266 9.0 9.0 0.00 0.02 0.02 99 1014.1
20260505022939 44 263 9.0 10.0 0.00 0.02 0.02 99 1013.9
20260505022437 44 263 9.0 10.0 0.00 0.02 0.02 99 1013.9
20260505021934 45 253 7.0 8.0 0.00 0.02 0.02 99 1013.8
20260505021430 45 253 7.0 8.0 0.00 0.02 0.02 99 1013.8
20260505020926 45 283 4.0 6.0 0.00 0.02 0.02 99 1013.9
20260505020422 45 283 4.0 6.0 0.00 0.02 0.02 99 1013.9
20260505015919 46 326 6.0 7.0 0.00 0.02 0.02 99 1013.7
20260505015416 46 326 6.0 7.0 0.00 0.02 0.02 99 1013.7
20260505014913 46 262 3.0 4.0 0.00 0.02 0.02 99 1013.4
20260505014410 46 262 3.0 4.0 0.00 0.02 0.02 99 1013.4
20260505013907 47 99 1.0 1.0 0.00 0.02 0.02 99 1013.8
20260505013404 47 99 1.0 1.0 0.00 0.02 0.02 99 1013.8
20260505012902 47 70 2.0 3.0 0.00 0.02 0.02 99 1013.9
20260505012400 47 70 2.0 3.0 0.00 0.02 0.02 99 1013.9
20260505011856 47 34 4.0 6.0 0.00 0.02 0.02 99 1013.7
20260505011353 47 34 4.0 6.0 0.00 0.02 0.02 99 1013.7
20260505010849 47 354 3.0 4.0 0.00 0.02 0.02 99 1013.9
20260505010345 47 354 3.0 4.0 0.00 0.02 0.02 99 1013.9
20260505005841 48 176 2.0 2.0 0.00 0.02 0.02 99 1013.7
20260505005338 48 176 2.0 2.0 0.00 0.02 0.02 99 1013.7
20260505004836 48 153 2.0 3.0 0.00 0.02 0.02 99 1013.9
20260505004331 48 153 2.0 3.0 0.00 0.02 0.02 99 1013.9
20260505003829 48 202 2.0 3.0 0.00 0.02 0.02 99 1013.9
20260505003326 48 202 2.0 3.0 0.00 0.02 0.02 99 1013.9
20260505002822 48 292 7.0 9.0 0.00 0.02 0.02 99 1013.8
20260505002319 48 292 7.0 9.0 0.00 0.02 0.02 99 1013.8
20260505001818 49 188 2.0 6.0 0.00 0.02 0.02 99 1014.1
20260505001314 49 188 2.0 6.0 0.00 0.02 0.02 99 1014.1
20260505000812 49 107 2.0 3.0 0.00 0.02 0.02 99 1014.2
20260505000310 49 107 2.0 3.0 0.00 0.02 0.02 99 1014.2
20260504235806 49 96 4.0 7.0 0.00 0.02 0.02 99 1014.2
20260504235304 49 96 4.0 7.0 0.00 0.02 0.02 99 1014.2
20260504234759 48 46 6.0 8.0 0.00 0.02 0.02 99 1014.3
20260504234257 48 46 6.0 8.0 0.00 0.02 0.02 99 1014.3
20260504233753 49 42 4.0 4.0 0.00 0.02 0.02 99 1014.2
20260504233249 49 42 4.0 4.0 0.00 0.02 0.02 99 1014.2
20260504232746 48 45 4.0 6.0 0.00 0.02 0.02 99 1014.2
20260504232243 48 45 4.0 6.0 0.00 0.02 0.02 99 1014.2
20260504231740 48 62 4.0 6.0 0.00 0.02 0.02 99 1013.9
20260504231236 49 79 5.0 6.0 0.00 0.02 0.02 99 1013.7
20260504230732 49 79 5.0 6.0 0.00 0.02 0.02 99 1013.7
20260504230231 50 97 3.0 3.0 0.00 0.02 0.02 99 1013.9
20260504225729 50 97 3.0 3.0 0.00 0.02 0.02 99 1013.9
20260504225225 50 82 3.0 3.0 0.00 0.02 0.02 99 1014.2
20260504224722 50 82 3.0 3.0 0.00 0.02 0.02 99 1014.2
20260504224220 50 68 5.0 7.0 0.00 0.02 0.02 99 1013.8